EW6762 Weather Reports


time (UTC)temp
C
wind
direction
speed
KPH
gust
KPH
rain 1hr
cm
rain 24hr
cm
rain mn
cm
humidity
%
barometer
mb
20260508071332 13 252 1.6 3.2 0.00 9.50 0.00 95 1014.8
20260508070348 13 265 1.6 4.8 0.00 9.50 0.00 95 1014.8
20260508065329 13 300 0.0 3.2 0.00 9.50 0.00 95 1014.6
20260508064326 13 300 1.6 3.2 0.00 9.50 0.00 95 1014.8
20260508063320 13 300 1.6 1.6 0.00 9.50 0.00 94 1014.7
20260508062321 13 300 0.0 1.6 0.00 9.50 0.00 94 1014.6
20260508061317 13 300 0.0 3.2 0.00 9.50 0.00 95 1014.6
20260508060313 13 300 0.0 1.6 0.00 9.50 0.00 94 1014.7
20260508055317 13 300 0.0 1.6 0.00 9.60 0.00 94 1014.7
20260508054314 13 300 1.6 3.2 0.00 9.60 0.00 95 1014.8
20260508053317 13 314 1.6 3.2 0.00 9.60 0.00 95 1014.8
20260508052333 13 321 1.6 1.6 0.00 9.60 0.00 94 1014.8
20260508051313 13 310 0.0 1.6 0.00 9.60 0.00 94 1014.7
20260508050326 13 310 1.6 3.2 0.00 9.60 0.00 94 1014.7
20260508045329 13 310 0.0 3.2 0.00 10.01 0.00 94 1014.4
20260508044323 13 308 1.6 3.2 0.00 10.01 0.00 94 1014.5
20260508043317 13 310 0.0 3.2 0.00 10.01 0.00 94 1014.4
20260508042338 13 310 1.6 4.8 0.00 10.01 0.00 94 1014.3
20260508041309 13 329 3.2 6.4 0.00 10.01 0.00 94 1014.1
20260508040327 14 345 1.6 6.4 0.00 10.01 0.00 94 1014.4
20260508035321 14 355 1.6 6.4 0.00 10.31 2.54 94 1014.3
20260508034325 14 306 1.6 6.4 0.00 10.31 2.54 94 1014.2
20260508033320 14 342 3.2 6.4 0.00 10.31 2.54 94 1014.1
20260508032313 13 278 3.2 6.4 0.00 10.31 2.54 94 1014.1
20260508031314 13 276 1.6 3.2 0.10 10.31 2.54 94 1013.9
20260508030313 13 321 1.6 3.2 0.10 10.31 2.54 94 1013.8
20260508025314 13 307 1.6 3.2 0.20 10.31 2.54 94 1013.7
20260508024310 13 300 1.6 9.7 0.20 10.31 2.54 94 1013.4
20260508023332 13 351 4.8 8.0 0.30 10.31 2.54 94 1013.1
20260508022326 13 350 4.8 12.9 0.41 10.31 2.54 94 1013.2
20260508021323 13 5 1.6 14.5 0.30 10.21 2.51 94 1013.0
20260508020325 13 5 3.2 9.7 0.30 10.21 2.51 94 1012.8
20260508015319 13 355 4.8 9.7 0.20 10.11 2.49 93 1013.0
20260508014314 13 317 3.2 4.8 0.71 10.11 2.49 93 1012.9
20260508013334 13 65 4.8 9.7 2.11 9.91 2.44 93 1012.3
20260508012336 13 5 3.2 8.0 2.49 9.91 2.44 93 1012.4
20260508011310 13 12 3.2 8.0 2.59 9.91 2.44 93 1012.4
20260508010334 13 34 3.2 8.0 2.59 9.91 2.44 92 1012.6
20260508005309 14 336 1.6 9.7 2.59 9.91 2.44 92 1012.3
20260508004329 14 340 3.2 12.9 2.11 9.40 2.31 91 1012.2
20260508003318 14 360 4.8 17.7 0.51 7.80 1.93 90 1011.3
20260508002335 14 324 4.8 17.7 0.10 7.39 1.80 89 1011.7
20260508001310 15 33 8.0 24.1 0.00 7.29 1.78 87 1011.1
20260508000324 15 324 4.8 17.7 0.00 7.29 1.78 86 1011.1
20260507235321 15 319 9.7 22.5 0.00 7.29 1.78 86 1010.8
20260507234336 15 329 9.7 17.7 0.00 7.29 1.78 86 1010.7
20260507233312 15 344 8.0 16.1 0.00 7.29 1.78 87 1010.8
20260507232326 15 360 12.9 20.9 0.00 7.29 1.78 87 1010.7
20260507231324 15 340 8.0 24.1 0.00 7.29 1.78 87 1010.5
20260507230317 16 335 8.0 25.7 0.00 7.29 1.78 87 1010.4
20260507225315 16 347 11.3 24.1 0.00 7.29 1.78 86 1010.0
20260507224351 16 326 9.7 19.3 0.00 7.29 1.78 87 1009.9
20260507223322 17 36 8.0 22.5 0.00 7.29 1.78 87 1009.8
20260507222318 17 96 8.0 29.0 0.00 7.29 1.78 87 1009.6
20260507221309 17 331 11.3 22.5 0.00 7.29 1.78 87 1009.9
20260507220325 18 340 11.3 33.8 0.00 7.29 1.78 86 1009.8
20260507215313 18 292 8.0 22.5 0.00 7.29 1.78 86 1009.9
20260507214330 19 305 11.3 27.4 0.00 7.29 1.78 84 1009.7
20260507212317 21 360 14.5 30.6 0.00 7.29 1.78 81 1008.9
20260507211322 21 343 9.7 19.3 0.00 7.29 1.78 83 1008.6
20260507210315 20 316 8.0 24.1 0.00 7.29 1.78 83 1008.6
20260507205332 21 310 12.9 19.3 0.00 7.29 1.78 83 1008.6
20260507204325 22 23 9.7 29.0 0.00 7.29 1.78 81 1008.5
20260507203322 23 322 9.7 22.5 0.00 7.29 1.78 80 1008.2
20260507202323 25 288 6.4 14.5 0.00 7.29 1.78 83 1007.8
20260507201332 25 190 4.8 12.9 0.00 7.29 1.78 85 1007.7
20260507200312 24 164 4.8 11.3 0.00 7.29 1.78 87 1008.0
20260507195327 24 230 4.8 11.3 0.00 7.29 1.78 86 1008.1
20260507194329 24 237 6.4 11.3 0.00 7.29 1.78 83 1007.9
20260507193318 24 281 4.8 8.0 0.00 7.29 1.78 85 1008.1
20260507192314 24 240 4.8 11.3 0.10 7.29 1.78 86 1008.2
20260507191317 24 293 6.4 14.5 0.10 7.29 1.78 85 1008.6
20260507190336 24 250 8.0 12.9 0.10 7.29 1.78 87 1008.4
20260507185326 24 200 4.8 11.3 0.10 7.29 1.78 89 1008.1
20260507184342 23 209 6.4 12.9 0.10 7.29 1.78 91 1008.7
20260507183312 23 254 4.8 16.1 0.10 7.29 1.78 92 1008.7
20260507182347 23 254 3.2 16.1 0.00 7.19 1.75 94 1009.2
20260507181321 22 249 6.4 12.9 0.00 7.19 1.75 94 1009.2
20260507180310 22 234 6.4 11.3 0.00 7.19 1.75 94 1008.7
20260507175328 22 241 3.2 12.9 0.00 7.19 1.75 94 1008.8
20260507174343 22 182 3.2 12.9 0.10 7.19 1.75 95 1008.6
20260507173322 22 94 4.8 12.9 0.20 7.19 1.75 94 1009.1
20260507172315 22 180 4.8 8.0 0.30 7.19 1.75 95 1008.9
20260507171335 22 150 3.2 6.4 0.41 7.19 1.75 95 1009.1
20260507170335 22 275 4.8 9.7 0.51 7.19 1.75 96 1009.3
20260507165344 22 222 3.2 11.3 0.61 7.19 1.75 96 1009.6
20260507164322 21 134 4.8 8.0 0.61 7.11 1.73 96 1009.7
20260507163318 21 96 4.8 11.3 0.51 7.01 1.70 95 1009.7
20260507162335 21 139 6.4 22.5 0.51 6.91 1.68 95 1010.4
20260507161328 21 202 6.4 16.1 0.51 6.81 1.65 94 1010.4
20260507160321 21 177 6.4 17.7 0.61 6.71 1.63 94 1010.4
20260507155324 21 222 8.0 16.1 0.61 6.60 1.60 95 1010.4
20260507154347 21 140 8.0 16.1 0.71 6.50 1.57 95 1010.3
20260507153323 21 103 4.8 14.5 0.89 6.50 1.57 95 1010.3
20260507152344 21 191 4.8 9.7 0.89 6.40 1.55 95 1010.5
20260507151326 21 166 1.6 8.0 0.89 6.30 1.52 95 1010.5
20260507150321 21 212 3.2 6.4 0.71 6.10 1.47 95 1010.5
20260507145343 21 175 4.8 9.7 0.61 5.99 1.45 94 1010.7
20260507144317 21 215 4.8 8.0 0.41 5.79 1.40 94 1010.8
20260507143318 21 214 3.2 9.7 0.20 5.59 1.35 94 1010.9
20260507142314 21 168 4.8 11.3 0.10 5.51 1.32 94 1010.9
20260507141312 21 227 8.0 16.1 0.00 5.41 1.30 94 1011.2
20260507140314 21 225 8.0 19.3 0.00 5.41 1.30 94 1010.9
20260507135330 21 178 4.8 11.3 0.00 5.41 1.30 95 1010.8
20260507134313 21 235 4.8 14.5 0.00 5.41 1.30 95 1010.9
20260507133336 21 221 6.4 12.9 0.00 5.41 1.30 95 1010.5
20260507132310 21 190 4.8 11.3 0.00 5.41 1.30 96 1010.4
20260507131332 21 265 4.8 11.3 0.00 5.41 1.30 96 1010.4
20260507130327 21 121 4.8 9.7 0.00 5.41 1.30 95 1010.2
20260507125320 21 184 4.8 12.9 0.10 5.41 1.30 95 1010.3
20260507124325 21 148 6.4 11.3 0.20 5.41 1.30 96 1010.4
20260507123317 21 181 4.8 9.7 0.41 5.41 1.30 96 1010.6
20260507122310 21 138 6.4 12.9 0.51 5.41 1.30 96 1010.9
20260507121310 21 139 6.4 14.5 0.61 5.41 1.30 96 1011.1
20260507120327 21 93 8.0 19.3 0.71 5.41 1.30 96 1011.5
20260507115329 21 187 9.7 20.9 0.61 5.31 1.27 96 1011.3
20260507114321 21 158 6.4 14.5 0.51 5.11 1.22 96 1011.6
20260507113319 21 200 6.4 16.1 0.51 5.00 1.19 96 1011.5
20260507112322 21 134 8.0 17.7 0.41 4.90 1.17 96 1011.4
20260507111319 21 130 8.0 14.5 0.41 4.80 1.14 95 1011.3
20260507110321 21 165 9.7 35.4 0.41 4.70 1.12 96 1011.8
20260507105334 21 118 6.4 22.5 0.61 4.70 1.12 96 1011.3
20260507104315 21 99 9.7 17.7 0.71 4.60 1.09 96 1011.3
20260507103310 21 159 8.0 17.7 0.71 4.50 1.07 95 1011.3
20260507102309 21 121 9.7 20.9 0.89 4.50 1.07 95 1011.2
20260507101325 21 116 8.0 16.1 0.89 4.39 1.04 95 1011.0
20260507100327 21 96 9.7 20.9 0.89 4.29 1.02 95 1011.3
20260507095324 21 166 11.3 17.7 0.89 4.09 0.97 95 1010.9
20260507094319 21 129 4.8 11.3 0.99 3.91 0.91 95 1011.1
20260507093321 21 140 4.8 11.3 1.19 3.81 0.89 95 1011.6
20260507092315 21 167 3.2 11.3 1.50 3.61 0.84 95 1011.8
20260507091311 21 195 3.2 12.9 1.91 3.51 0.81 95 1011.4
20260507090314 21 111 4.8 11.3 2.11 3.40 0.79 94 1011.0
20260507085331 21 136 6.4 12.9 2.11 3.20 0.74 95 1011.1
20260507084321 21 96 3.2 11.3 1.91 2.90 0.66 94 1011.4
20260507083317 21 186 4.8 11.3 1.60 2.49 0.56 94 1012.2
20260507082319 21 244 4.8 11.3 1.19 2.11 0.46 94 1012.5
20260507081333 21 201 4.8 11.3 0.79 1.60 0.33 94 1012.8
20260507080312 21 143 3.2 8.0 0.51 1.30 0.25 94 1012.8
20260507075327 21 171 3.2 8.0 0.30 1.09 0.20 94 1011.9
20260507074330 21 128 3.2 8.0 0.20 0.99 0.18 94 1011.8
20260507073339 21 163 3.2 8.0 0.10 0.89 0.15 94 1012.1
20260507072316 21 178 3.2 6.4 0.10 0.89 0.15 93 1012.4